User: anonymous   Login
Location: Unspecified
(0.0000°N, 0.0000°E)
Time: 06:48:56
(UTC+00:00)
Language:

A-11 Canister half - Orbit

View from above orbital plane
View from above orbital plane
View from above satellite
View from above satellite

Ground track
Ground track

The orbit data is extracted from the following two-line orbital elements,

1 00053U 60009E   15117.87884722 -.00000084  00000-0  00000+0 0  9996
2 00053 047.2768 288.7298 0096997 293.2681 065.7921 12.17164113439877
Epoch (UTC): 27 April 2015 21:05:32
Eccentricity: 0.0096997
inclination: 47.2768°
perigee height: 1527 km
apogee height: 1682 km
right ascension of ascending node: 288.7298°
argument of perigee: 293.2681°
revolutions per day: 12.17164113
mean anomaly at epoch: 65.7921°
orbit number at epoch: 43987

The dashed part of the orbit path shows where the satellite is in the earth's shadow,  

DLR